{"data":{"norad_id":56469,"epoch":"2026-05-25T03:00:03.989088Z","epoch_age_seconds":67379,"freshness":"FRESH","line1":"1 56469U 23064X   26145.12504617 -.00000196  00000+0 -86420-5 0  9991","line2":"2 56469  69.9988 291.9313 0002909 268.6936  91.3890 14.98330234167189","mean_motion":14.98330234,"eccentricity":0.0002909,"inclination_deg":69.9988,"raan_deg":291.9313,"arg_perigee_deg":268.6936,"mean_anomaly_deg":91.389,"bstar":-8.642e-6,"rev_number":16718,"period_min":96.106984116293,"perigee_km":570.03335641734,"apogee_km":574.07697822029,"semimajor_km":6950.1921673188,"source":"CELESTRAK","updated_at":"2026-05-25T13:38:18.070645Z"}}